Regional Weather Roundup
Issued by NWS Kansas City/Pleasant Hill, MO

Home | Current Version | Previous Version | Graphics & Text | Print | Product List | Glossary Off
Versions: 1 2 3 4 5 6 7 8 9 10 11 12 13 14 15 16 17 18 19 20 21 22 23 24 25 26 27 28 29 30 31 32 33 34 35 36 37 38 39 40 41 42 43 44 45 46 47 48 49 50

000
ASUS43 KEAX 051411
RWREAX

WEATHER ROUNDUP FOR EASTERN KANSAS AND NORTHWEST MISSOURI
NATIONAL WEATHER SERVICE KANSAS CITY/PLEASANT HILL MO
900 AM CDT TUE MAY 05 2015

KSZ040-057-103>105-MOZ028-029-037-043-051500-
...KANSAS CITY METROPOLITAN AREA...

CITY           SKY/WX    TMP DP  RH WIND       PRES   REMARKS
K.C. INTL      PTSUNNY   67  61  81 S9        30.11S
K.C. DOWNTOWN  PTSUNNY   68  60  75 S8        30.10F
LEES SUMMIT    CLOUDY    67  59  75 S8        30.12S
OLATHE - IXD   MOSUNNY   67  59  75 S10       30.12S
OLATHE - OJC   MOSUNNY   67  60  78 S9        30.11S
LAWRENCE       MOSUNNY   65  60  84 SE8       30.10S

$$

MOZ001>008-011>017-020>025-030>033-038>040-044>046-053-054-051500-
...NORTHERN AND CENTRAL MISSOURI...

CITY           SKY/WX    TMP DP  RH WIND       PRES   REMARKS
ST. JOSEPH     CLOUDY    62  60  93 SE8       30.11S
MOSBY          PTSUNNY   63  63 100 CALM      30.12S
WARRENSBURG    SUNNY     70  59  68 S8        30.13S
WHITEMAN AFB   NOT AVBL
CLINTON        SUNNY     72  61  68 S9        30.14S
SEDALIA        SUNNY     72  59  63 S9        30.16R
WARSAW         NOT AVBL
MARSHALL       SUNNY     73  61  64 S7        30.15S
CHILLICOTHE      N/A     66  62  87 CALM      30.14R
MOBERLY        MOSUNNY   70  59  68 S9        30.16R
KIRKSVILLE     CLOUDY    65  64  97 E3        30.16R FOG

$$

MOZ041-047>049-056>058-063>065-088>090-097-051500-
...EASTERN AND SOUTHERN MISSOURI...

CITY           SKY/WX    TMP DP  RH WIND       PRES   REMARKS
ST. LOUIS INTL PTSUNNY   74  56  53 SW12      30.19R
SPIRIT OF STL  MOSUNNY   72  58  61 SW7       30.18R
COLUMBIA       SUNNY     70  59  68 S8        30.17R
JEFFERSON CITY PTSUNNY   70  57  63 SE5       30.17R
MEXICO         MOSUNNY   73  63  68 SW8       30.16R
ROLLA          PTSUNNY   70  57  63 S10       30.19R
LEBANON        MOSUNNY   72  59  64 S9        30.19S
OSAGE BEACH    PTSUNNY   70  57  64 S6        30.17S
SPRINGFIELD    SUNNY     69  58  67 S13       30.15S
BRANSON        MOSUNNY   66  59  77 MISG      30.20R
NEVADA         SUNNY     70  59  68 S13       30.14S
JOPLIN         SUNNY     70  59  68 S12       30.13S
WEST PLAINS    MOSUNNY   69  56  62 S8        30.22S

$$

IAZ060-094-KSZ022-034>040-054-083-096-NEZ052-066-093-051500-
...KANSAS...SOUTHEAST NEBRASKA AND IOWA...

CITY           SKY/WX    TMP DP  RH WIND       PRES   REMARKS
TOPEKA         CLOUDY    66  61  84 E5        30.09S
MANHATTAN      CLOUDY    65  60  84 CALM      30.06S
EMPORIA        MOSUNNY   67  57  70 S13       30.08R
CHANUTE        MOSUNNY   68  58  70 SE12      30.10R
WICHITA        CLOUDY    67  55  65 SE14      30.05S
OMAHA          CLOUDY    63  60  90 S9        30.09R
LINCOLN        CLOUDY    62  59  90 SE6       30.08S
FALLS CITY     CLOUDY    62  59  90 SE8       30.09R
LAMONI         PTSUNNY   65  60  84 SE12      30.13R
DES MOINES     CLOUDY    64  61  90 S8        30.11R

$$



USA.gov is the U.S. government's official web portal to all federal, state and local government web resources and services.